TimeCST,TemperatureF,Dew PointF,Humidity,Sea Level PressureIn,VisibilityMPH,Wind Direction,Wind SpeedMPH,Gust SpeedMPH,PrecipitationIn,Events,Conditions,WindDirDegrees,DateUTC
12:15 AM,21.0,16.5,83,30.11,10.0,NE,6.9,-,N/A,,Clear,50,2013-02-22 06:15:00
12:35 AM,21.0,16.5,83,30.11,10.0,NE,11.5,-,N/A,,Clear,40,2013-02-22 06:35:00
12:54 AM,21.0,16.5,83,30.10,10.0,NE,8.1,-,N/A,,Clear,50,2013-02-22 06:54:00
1:15 AM,20.8,16.3,83,30.09,10.0,NE,9.2,-,N/A,,Clear,50,2013-02-22 07:15:00
1:35 AM,20.8,16.3,83,30.08,10.0,NE,11.5,18.4,N/A,,Scattered Clouds,40,2013-02-22 07:35:00
1:54 AM,20.8,16.2,82,30.06,10.0,NE,12.7,-,N/A,,Mostly Cloudy,40,2013-02-22 07:54:00
2:15 AM,20.7,16.0,82,30.05,10.0,NE,11.5,17.3,N/A,,Overcast,50,2013-02-22 08:15:00
2:35 AM,20.7,15.8,81,30.03,10.0,NE,11.5,-,N/A,,Overcast,40,2013-02-22 08:35:00
2:54 AM,20.3,15.8,83,30.03,10.0,NE,11.5,16.1,N/A,,Overcast,40,2013-02-22 08:54:00
3:15 AM,20.3,16.0,83,30.02,10.0,NE,9.2,16.1,N/A,,Overcast,40,2013-02-22 09:15:00
3:35 AM,20.3,16.5,85,30.01,10.0,NE,11.5,20.7,N/A,,Overcast,40,2013-02-22 09:35:00
3:54 AM,20.3,16.7,86,29.99,10.0,NE,11.5,-,N/A,,Overcast,40,2013-02-22 09:54:00
4:15 AM,20.3,16.7,86,29.99,7.0,NE,9.2,17.3,N/A,,Overcast,40,2013-02-22 10:15:00
4:35 AM,20.1,16.7,87,29.98,5.0,NNE,6.9,-,N/A,Snow,Light Snow,30,2013-02-22 10:35:00
4:54 AM,19.8,16.7,88,29.98,3.0,NNE,9.2,-,N/A,Snow,Light Snow,30,2013-02-22 10:54:00
5:15 AM,19.4,17.1,91,29.98,3.0,NNE,9.2,-,N/A,Snow,Light Snow,30,2013-02-22 11:15:00
5:35 AM,19.4,17.2,91,29.98,4.0,NNE,9.2,-,N/A,Snow,Light Snow,30,2013-02-22 11:35:00
5:54 AM,19.4,17.2,91,29.97,5.0,NNE,6.9,-,N/A,Snow,Light Snow,30,2013-02-22 11:54:00
6:15 AM,19.8,17.4,91,29.97,5.0,NNE,8.1,-,N/A,,Overcast,30,2013-02-22 12:15:00
6:35 AM,19.8,17.4,91,29.97,5.0,NNE,6.9,-,N/A,,Overcast,30,2013-02-22 12:35:00
6:55 AM,19.9,17.6,91,29.97,7.0,NNE,6.9,-,N/A,,Overcast,20,2013-02-22 12:55:00
7:15 AM,20.1,17.8,91,29.96,5.0,NNE,5.8,-,N/A,,Overcast,30,2013-02-22 13:15:00
7:35 AM,20.1,18.0,91,29.96,7.0,NNE,6.9,-,N/A,,Overcast,30,2013-02-22 13:35:00
7:55 AM,20.3,18.1,91,29.96,5.0,NNE,5.8,-,N/A,,Overcast,20,2013-02-22 13:55:00
8:15 AM,20.7,18.3,91,29.95,7.0,NNE,5.8,-,N/A,,Overcast,20,2013-02-22 14:15:00
8:35 AM,21.0,18.3,89,29.94,10.0,NNE,6.9,-,N/A,,Overcast,20,2013-02-22 14:35:00
8:55 AM,21.2,18.5,89,29.94,5.0,NNE,9.2,-,N/A,,Overcast,30,2013-02-22 14:55:00
9:15 AM,22.1,19.0,88,29.93,7.0,NNE,8.1,-,N/A,,Overcast,30,2013-02-22 15:15:00
9:35 AM,23.0,19.2,85,29.93,10.0,NNE,9.2,-,N/A,,Overcast,30,2013-02-22 15:35:00
9:55 AM,23.0,19.0,85,29.92,7.0,NE,10.4,-,N/A,Snow,Light Snow,40,2013-02-22 15:55:00
10:15 AM,23.2,19.6,86,29.92,2.5,NE,6.9,-,N/A,Snow,Light Snow,50,2013-02-22 16:15:00
10:35 AM,23.7,20.1,86,29.91,4.0,NE,6.9,-,N/A,Snow,Light Snow,50,2013-02-22 16:35:00
11:15 AM,24.4,20.3,84,29.91,4.0,NE,8.1,-,N/A,Snow,Light Snow,50,2013-02-22 17:15:00
11:35 AM,24.8,20.7,84,29.91,5.0,NE,5.8,-,N/A,Snow,Light Snow,40,2013-02-22 17:35:00
11:55 AM,25.3,20.7,82,29.90,4.0,NNE,9.2,-,N/A,Snow,Light Snow,30,2013-02-22 17:55:00
12:15 PM,25.3,20.5,82,29.90,5.0,NE,6.9,-,N/A,,Haze,40,2013-02-22 18:15:00
12:35 PM,25.3,20.8,83,29.89,7.0,NNE,6.9,-,N/A,,Overcast,20,2013-02-22 18:35:00
12:55 PM,25.3,21.0,84,29.89,10.0,NNE,5.8,-,N/A,Rain,Freezing Rain,20,2013-02-22 18:55:00
1:15 PM,25.9,21.0,82,29.87,10.0,ENE,5.8,-,N/A,Rain,Freezing Rain,60,2013-02-22 19:15:00
1:34 PM,26.4,21.0,80,29.87,10.0,NNE,4.6,-,0.01,,Overcast,30,2013-02-22 19:34:00
1:55 PM,26.8,21.2,79,29.86,10.0,NE,6.9,-,0.02,,Overcast,50,2013-02-22 19:55:00
2:15 PM,27.0,21.0,78,29.86,10.0,NNE,5.8,-,N/A,,Overcast,20,2013-02-22 20:15:00
2:35 PM,26.6,21.0,79,29.85,10.0,NNE,6.9,-,0.01,,Overcast,30,2013-02-22 20:35:00
2:55 PM,27.1,21.2,78,29.85,10.0,NNE,6.9,-,0.01,,Overcast,20,2013-02-22 20:55:00
3:15 PM,26.6,21.0,79,29.85,10.0,North,5.8,-,N/A,,Overcast,10,2013-02-22 21:15:00
3:35 PM,27.0,20.8,78,29.85,10.0,NNE,3.5,-,N/A,,Overcast,20,2013-02-22 21:35:00
3:55 PM,27.0,20.5,77,29.86,10.0,NNE,4.6,-,N/A,,Overcast,20,2013-02-22 21:55:00
4:15 PM,26.6,21.2,80,29.86,10.0,North,3.5,-,N/A,,Overcast,350,2013-02-22 22:15:00
4:35 PM,26.6,21.6,81,29.86,10.0,North,3.5,-,N/A,,Overcast,350,2013-02-22 22:35:00
4:55 PM,26.6,21.4,81,29.86,10.0,NNW,3.5,-,N/A,,Overcast,340,2013-02-22 22:55:00
5:15 PM,26.6,21.6,81,29.86,10.0,NNW,3.5,-,N/A,,Overcast,330,2013-02-22 23:15:00
5:35 PM,26.2,21.2,81,29.86,10.0,NNW,3.5,-,N/A,,Overcast,330,2013-02-22 23:35:00
5:55 PM,25.7,21.7,85,29.86,10.0,NW,3.5,-,N/A,,Overcast,320,2013-02-22 23:55:00
6:15 PM,25.5,21.7,86,29.87,10.0,NW,3.5,-,N/A,,Overcast,310,2013-02-23 00:15:00
6:35 PM,25.2,21.6,86,29.87,10.0,Calm,Calm,-,N/A,Rain,Freezing Rain,0,2013-02-23 00:35:00
6:55 PM,24.8,21.2,86,29.87,10.0,Calm,Calm,-,N/A,,Overcast,0,2013-02-23 00:55:00
7:15 PM,24.3,21.2,88,29.87,10.0,West,3.5,-,N/A,,Overcast,260,2013-02-23 01:15:00
7:35 PM,23.9,20.8,88,29.87,10.0,West,3.5,-,N/A,,Overcast,280,2013-02-23 01:35:00
7:55 PM,23.9,20.7,87,29.87,10.0,WNW,3.5,-,N/A,,Overcast,300,2013-02-23 01:55:00
8:15 PM,23.9,20.3,86,29.86,10.0,WNW,3.5,-,N/A,,Overcast,290,2013-02-23 02:15:00
8:35 PM,22.8,19.4,87,29.86,10.0,WNW,3.5,-,N/A,,Overcast,290,2013-02-23 02:35:00
8:55 PM,21.0,17.8,87,29.86,10.0,West,3.5,-,N/A,,Overcast,280,2013-02-23 02:55:00
9:15 PM,20.3,17.6,89,29.85,10.0,West,3.5,-,N/A,,Overcast,260,2013-02-23 03:15:00
9:35 PM,18.9,16.5,91,29.85,10.0,WSW,3.5,-,N/A,,Overcast,250,2013-02-23 03:35:00
9:55 PM,19.4,17.6,93,29.85,10.0,Calm,Calm,-,N/A,,Overcast,0,2013-02-23 03:55:00
10:15 PM,19.8,17.6,91,29.84,10.0,West,3.5,-,N/A,,Overcast,270,2013-02-23 04:15:00
10:35 PM,19.4,17.2,91,29.84,10.0,Calm,Calm,-,N/A,,Overcast,0,2013-02-23 04:35:00
10:55 PM,19.6,17.6,92,29.84,10.0,West,3.5,-,N/A,,Overcast,270,2013-02-23 04:55:00
11:15 PM,18.7,16.7,92,29.83,10.0,Calm,Calm,-,N/A,,Overcast,0,2013-02-23 05:15:00
11:35 PM,17.6,15.6,92,29.83,10.0,Calm,Calm,-,N/A,,Overcast,0,2013-02-23 05:35:00
11:55 PM,17.4,15.6,93,29.83,10.0,Calm,Calm,-,N/A,,Overcast,0,2013-02-23 05:55:00